[[{"header":{"parameterUnit":"m.s-1","parameterCategory":1,"la1":30.2991,"la2":30.254,"lo1":-89.0895,"lo2":-89.0444,"dy":0.0017,"dx":0.0017,"nx":28,"ny":28,"refTime":"2024-12-06T03:00:00:Z","depth":0,"parameterNumber":2,"parameterNumberName":"U-component_of_WINDS"},"data":[0,0,0,0,0,0,0,0,0,0,0,0,0,0,0,0,0,0,0,0,0,0,0,0,0,0,0,0,0,0,0,0,0,0,0,0,0,0,0,0,0,0,0,0,0,0,0,0,0,0,0,0,0,0,0,0,0,0,-3.8153,-3.8153,0,-3.8216,-3.8217,-3.8218,-3.8111,-3.8107,-3.8104,-3.81,-3.8168,-3.8173,-3.8178,0,0,0,0,0,0,0,0,0,0,0,0,0,-3.7941,-3.7945,-3.8152,-3.8153,-3.8154,-3.8216,-3.8217,-3.8218,-3.8112,-3.8107,-3.8103,-3.8099,-3.8166,-3.8173,-3.8179,0,0,0,0,0,0,0,0,0,0,0,0,0,-3.8022,-3.7947,-3.8152,-3.8108,-3.8105,-3.8216,-3.8217,-3.8218,-3.8112,-3.8107,-3.8102,-3.8096,-3.8164,-3.8172,-3.818,-3.8337,0,0,-3.8204,-3.8207,0,0,0,0,0,0,0,0,-3.8017,-3.803,-3.8114,-3.8112,-3.8108,-3.815,-3.8167,-3.8258,-3.8114,-3.811,-3.81,-3.8094,-3.8167,-3.8174,-3.8198,-3.834,-3.8343,-3.8204,-3.8209,-3.8212,-3.8214,0,0,0,0,0,0,0,-3.8012,-3.8026,-3.8178,-3.8115,-3.8112,-3.8086,-3.8092,-3.8184,-3.8168,-3.811,-3.8102,-3.8111,-3.8164,-3.8191,-3.8199,-3.8344,-3.8204,-3.8211,-3.8216,-3.8219,-3.8619,-3.8625,0,0,0,0,0,0,-3.8011,-3.8022,-3.8176,-3.818,-3.8048,-3.8094,-3.8101,-3.8142,-3.8167,-3.8165,-3.8116,-3.8106,-3.818,-3.819,-3.8201,-3.8388,-3.8212,-3.822,-3.8224,-3.8614,-3.8621,-3.8627,0,0,0,0,0,0,-3.8007,-3.8026,-3.8173,-3.8099,-3.8116,-3.8104,-3.8151,-3.8146,-3.8173,-3.8171,-3.8168,-3.8146,-3.8176,-3.819,-3.8304,-3.8388,-3.8223,-3.823,-3.8607,-3.8616,-3.8624,-3.8762,0,0,0,0,0,0,-3.8001,-3.8025,-3.8084,-3.8101,-3.812,-3.8275,-3.8157,-3.8151,-3.8186,-3.8174,-3.8199,-3.8198,-3.8173,-3.8293,-3.8312,-3.8396,-3.8236,-3.8599,-3.8611,-3.8621,-3.875,-3.8775,-3.8796,0,0,0,0,0,-3.7994,-3.8121,-3.8088,-3.8107,-3.8194,-3.828,-3.8291,-3.8259,-3.8193,-3.8253,-3.8252,-3.8197,-3.8376,-3.8305,-3.8326,-3.8414,-3.8593,-3.8607,-3.862,-3.874,-3.877,-3.8795,0,0,0,0,0,0,-3.8116,-3.8122,-3.8086,-3.8222,-3.8251,-3.8262,-3.8337,-3.8292,-3.8342,-3.8328,-3.8287,-3.8294,-3.8417,-3.8426,-3.8348,-3.8568,-3.8474,-3.8492,-3.8558,-3.8586,-3.8609,-3.8605,-3.8243,0,0,0,0,0,-3.8158,-3.8227,-3.8229,-3.8349,-3.8365,-3.8349,-3.8385,-3.8358,-3.8387,-3.84,-3.8407,-3.8438,-3.8501,-3.8544,-3.8602,-3.875,-3.8755,-3.8821,-3.8844,-3.8862,-3.8879,-3.8959,-3.8989,-3.8671,-3.8671,-3.8671,0,0,-3.8247,-3.8259,-3.8305,-3.8374,-3.8393,-3.8466,-3.836,-3.8442,-3.8496,-3.8412,-3.8521,-3.8527,-3.8559,-3.8691,-3.875,-3.8703,-3.8968,-3.8879,-3.8895,-3.8901,-3.8976,-3.9007,-3.9033,-3.868,-3.8679,-3.8677,0,0,-3.8446,-3.8462,-3.8563,-3.8585,-3.8616,-3.8604,-3.8628,-3.8646,-3.8647,-3.8755,-3.8694,-3.8757,-3.8867,-3.8893,-3.892,-3.9129,-3.908,-3.9149,-3.9269,-3.9348,-3.9373,-3.9395,-3.9471,-3.9499,-3.9165,-3.9165,-3.9166,0,-3.8553,-3.866,-3.8622,-3.8708,-3.874,-3.8666,-3.877,-3.8793,-3.8842,-3.8866,-3.8812,-3.8948,-3.8965,-3.9102,-3.9153,-3.9177,-3.9205,-3.9147,-3.9372,-3.9394,-3.9414,-3.9486,-3.9515,-3.9174,-3.9173,-3.9172,-3.9171,0,-3.879,-3.8865,-3.8944,-3.8992,-3.9033,-3.9128,-3.9105,-3.9151,-3.912,-3.9114,-3.9225,-3.9242,-3.9303,-3.9333,-3.9304,-3.9467,-3.9437,-3.9379,-3.9283,-3.9453,-3.952,-3.9547,-3.9185,-3.9182,-3.918,-3.9178,0,0,-3.9069,-3.9094,-3.9124,-3.9145,-3.9174,-3.9232,-3.9323,-3.9381,-3.9422,-3.9458,-3.9534,-3.9628,-3.9574,-3.9606,-3.9579,-3.9648,-3.9814,-3.958,-3.958,-3.9625,-3.9996,-4.0041,-4.0074,-3.978,-3.9785,-3.979,-3.9994,0,-3.9269,-3.9426,-3.9394,-3.9548,-3.9617,-3.9548,-3.9628,-3.9654,-3.9651,-3.971,-3.9706,-3.9774,-3.9697,-3.9715,-3.978,-3.978,-3.9888,-3.9764,-3.9853,-3.9856,-3.9849,-4.0108,-4.0157,-4.0349,-4.002,-4.0024,-4.0027,0,-3.9523,-3.9567,-3.9729,-3.9746,-3.9774,-3.9846,-3.9897,-3.9954,-3.9983,-3.9975,-4.001,-3.997,-4.0062,-3.9964,-4.0091,-4.0007,-4.0041,-4.0047,-4.0053,-4.0062,-3.9954,-4.0126,-4.0409,-4.0439,-4.0068,-4.0065,-4.0062,0,-3.9712,-3.9813,-3.9922,-3.9942,-3.9965,-4.0017,-4.0029,-4.0052,-4.009,-4.0134,-4.0158,-4.0213,-4.0244,-4.0288,-4.0264,-4.0195,-4.0396,-4.0296,-4.0394,-4.0395,-4.0441,-4.0438,-4.0735,-4.046,-4.0459,-4.0459,-4.0458,0,-3.9939,-4.0041,-4.0008,-4.0075,-4.0187,-4.015,-4.0262,-4.0266,-4.0287,-4.0355,-4.0297,-4.0363,-4.0326,-4.0389,-4.0371,-4.0479,-4.0493,-4.049,-4.0485,-4.0497,-4.0497,-4.052,-4.0507,-4.0466,-4.0465,-4.0463,-4.0462,0,-4.0171,-4.0152,-4.0267,-4.0279,-4.0284,-4.0367,-4.0377,-4.044,-4.0432,-4.0519,-4.0537,-4.0524,-4.0595,-4.0575,-4.0652,-4.0639,-4.0777,-4.0753,-4.0767,-4.0762,-4.0862,-4.0853,-4.1185,-4.1227,-4.0923,-4.0926,-4.0929,0,-4.0318,-4.0395,-4.0414,-4.0455,-4.0471,-4.0538,-4.0575,-4.0541,-4.0583,-4.0621,-4.0681,-4.0746,-4.0796,-4.0912,-4.0911,-4.0969,-4.0948,-4.106,-4.0956,-4.0966,-4.0952,-4.0948,-4.0956,-4.1081,-4.1085,-4.1088,-4.109,0,-4.0582,-4.0569,-4.0624,-4.0678,-4.0724,-4.0764,-4.0799,-4.0836,-4.0804,-4.0854,-4.0925,-4.0965,-4.1042,-4.1109,-4.1162,-4.1175,-4.1129,-4.1122,-4.1148,-4.1162,-4.1168,-4.1168,-4.0826,-4.1115,-4.1113,-4.1111,-4.1109,-4.1108,-4.0777,-4.0842,-4.0866,-4.093,-4.0953,-4.0987,-4.1047,-4.1046,-4.1105,-4.1165,-4.1141,-4.1223,-4.125,-4.1317,-4.1336,-4.1401,-4.1358,-4.1396,-4.1405,-4.1416,-4.1429,-4.1156,-4.141,-4.1409,-4.1409,-4.1408,-4.1407,0,-4.1039,-4.105,-4.111,-4.1161,-4.1212,-4.1161,-4.1198,-4.1244,-4.1317,-4.1345,-4.1396,-4.1478,-4.1542,-4.1545,-4.1605,-4.1656,-4.1636,-4.1673,-4.167,-4.1674,-4.1463,-4.1435,-4.1688,-4.1688,-4.1688,-4.1688,-4.1688,-4.1688,-4.1181,-4.1289,-4.1279,-4.1398,-4.1408,-4.1488,-4.1513,-4.1545,-4.1567,-4.1662,-4.1714,-4.1715,-4.1734,-4.1794,-4.1851,-4.185,-4.1876,-4.1921,-4.1913,-4.1716,-4.1689,-4.1662,-4.1636,-4.1927,-4.1927,-4.2119,-4.2121,-4.2122]},{"header":{"parameterUnit":"m.s-1","parameterCategory":1,"la1":30.2991,"la2":30.254,"lo1":-89.0895,"lo2":-89.0444,"dy":0.0017,"dx":0.0017,"nx":28,"ny":28,"refTime":"2024-12-06T03:00:00:Z","depth":0,"parameterNumber":3,"parameterNumberName":"V-component_of_WINDS"},"data":[0,0,0,0,0,0,0,0,0,0,0,0,0,0,0,0,0,0,0,0,0,0,0,0,0,0,0,0,0,0,0,0,0,0,0,0,0,0,0,0,0,0,0,0,0,0,0,0,0,0,0,0,0,0,0,0,0,0,-2.9452,-2.9452,0,-2.9464,-2.9465,-2.9465,-2.9429,-2.9428,-2.9427,-2.9426,-2.9438,-2.9439,-2.9441,0,0,0,0,0,0,0,0,0,0,0,0,0,-2.9396,-2.9397,-2.9452,-2.9452,-2.9452,-2.9464,-2.9465,-2.9465,-2.9429,-2.9428,-2.9427,-2.9425,-2.9438,-2.9439,-2.9441,0,0,0,0,0,0,0,0,0,0,0,0,0,-2.9416,-2.9398,-2.9452,-2.9436,-2.9435,-2.9464,-2.9465,-2.9465,-2.943,-2.9428,-2.9426,-2.9425,-2.9437,-2.9439,-2.9441,-2.9486,0,0,-2.9447,-2.9448,0,0,0,0,0,0,0,0,-2.9414,-2.9418,-2.9438,-2.9437,-2.9436,-2.9444,-2.9449,-2.9472,-2.943,-2.9432,-2.9426,-2.9424,-2.9441,-2.9443,-2.9449,-2.9487,-2.9487,-2.9447,-2.9449,-2.9449,-2.945,0,0,0,0,0,0,0,-2.9413,-2.9417,-2.9457,-2.9439,-2.9437,-2.9428,-2.9429,-2.9453,-2.9445,-2.9431,-2.9429,-2.9431,-2.944,-2.9447,-2.9449,-2.9487,-2.9447,-2.9449,-2.945,-2.9451,-2.9561,-2.9563,0,0,0,0,0,0,-2.9414,-2.9416,-2.9457,-2.9457,-2.9421,-2.943,-2.9431,-2.9443,-2.9445,-2.9444,-2.9432,-2.9429,-2.9444,-2.9446,-2.9449,-2.9501,-2.9449,-2.9451,-2.9452,-2.956,-2.9562,-2.9564,0,0,0,0,0,0,-2.9413,-2.9418,-2.9456,-2.9436,-2.944,-2.9433,-2.9446,-2.9444,-2.945,-2.9446,-2.9444,-2.9441,-2.9443,-2.9446,-2.9477,-2.9501,-2.9452,-2.9454,-2.9558,-2.956,-2.9563,-2.9606,0,0,0,0,0,0,-2.9412,-2.9418,-2.9436,-2.9437,-2.9441,-2.9485,-2.9448,-2.9445,-2.9454,-2.945,-2.9453,-2.9452,-2.9442,-2.9474,-2.9479,-2.9503,-2.9456,-2.9556,-2.9559,-2.9562,-2.9602,-2.961,-2.9616,0,0,0,0,0,-2.941,-2.9448,-2.9437,-2.9442,-2.9463,-2.9486,-2.9489,-2.9476,-2.9456,-2.9473,-2.947,-2.9452,-2.9498,-2.9478,-2.9483,-2.9507,-2.9554,-2.9558,-2.9562,-2.9599,-2.9608,-2.9616,0,0,0,0,0,0,-2.945,-2.9447,-2.9435,-2.9475,-2.9481,-2.948,-2.9502,-2.9487,-2.9498,-2.9494,-2.9478,-2.9479,-2.9513,-2.9513,-2.9491,-2.955,-2.9522,-2.9527,-2.9549,-2.9557,-2.9564,-2.9563,-2.9457,0,0,0,0,0,-2.9463,-2.9482,-2.9479,-2.9514,-2.9518,-2.9509,-2.9519,-2.9508,-2.9514,-2.9516,-2.9515,-2.9521,-2.9536,-2.9547,-2.9561,-2.9602,-2.9602,-2.9622,-2.9628,-2.9634,-2.9639,-2.9659,-2.9667,-2.9576,-2.9576,-2.9576,0,0,-2.9491,-2.9492,-2.9505,-2.9522,-2.9525,-2.9545,-2.9512,-2.9534,-2.9547,-2.952,-2.9548,-2.9548,-2.9553,-2.9589,-2.9604,-2.959,-2.9664,-2.9639,-2.9644,-2.9645,-2.9664,-2.9672,-2.968,-2.9579,-2.9579,-2.9578,0,0,-2.9552,-2.9555,-2.9584,-2.9588,-2.9593,-2.9587,-2.9594,-2.9595,-2.9593,-2.9622,-2.9601,-2.9617,-2.9644,-2.9648,-2.9654,-2.9714,-2.9697,-2.9719,-2.9755,-2.9775,-2.9782,-2.9788,-2.9809,-2.9817,-2.9724,-2.9724,-2.9724,0,-2.9586,-2.9614,-2.96,-2.9623,-2.9631,-2.9606,-2.9634,-2.9639,-2.9649,-2.9654,-2.9638,-2.9671,-2.9673,-2.9708,-2.9723,-2.9729,-2.9735,-2.9719,-2.9782,-2.9788,-2.9794,-2.9813,-2.9821,-2.9726,-2.9726,-2.9726,-2.9726,0,-2.9655,-2.9675,-2.9698,-2.9707,-2.9717,-2.9743,-2.9732,-2.9744,-2.9732,-2.9728,-2.9756,-2.9757,-2.9771,-2.9778,-2.9768,-2.9812,-2.9803,-2.9785,-2.9756,-2.9805,-2.9823,-2.9831,-2.973,-2.9729,-2.9728,-2.9728,0,0,-2.9742,-2.9743,-2.9751,-2.9754,-2.9758,-2.9773,-2.9797,-2.9809,-2.9819,-2.9826,-2.9845,-2.9868,-2.9851,-2.9858,-2.9847,-2.9865,-2.9911,-2.9844,-2.9844,-2.9856,-2.9959,-2.9972,-2.9981,-2.99,-2.9901,-2.9902,-2.9958,0,-2.9801,-2.9842,-2.983,-2.9871,-2.9888,-2.9864,-2.9885,-2.9889,-2.9885,-2.9898,-2.9894,-2.991,-2.9886,-2.989,-2.9906,-2.9902,-2.9931,-2.9898,-2.9917,-2.9918,-2.9916,-2.999,-3.0005,-3.0057,-2.9965,-2.9966,-2.9967,0,-2.9876,-2.9885,-2.9928,-2.9927,-2.9933,-2.9952,-2.9962,-2.9976,-2.9979,-2.9975,-2.9982,-2.9967,-2.9989,-2.9961,-2.9991,-2.9968,-2.9975,-2.9974,-2.9976,-2.9977,-2.9945,-2.9993,-3.0073,-3.0081,-2.9978,-2.9977,-2.9976,0,-2.9933,-2.9957,-2.9985,-2.9989,-2.9989,-3.0002,-3.0003,-3.0004,-3.0012,-3.0021,-3.0025,-3.0037,-3.0043,-3.0051,-3.004,-3.002,-3.0071,-3.0042,-3.0068,-3.0068,-3.0079,-3.0079,-3.0162,-3.0085,-3.0085,-3.0085,-3.0085,0,-3.0,-3.0027,-3.0011,-3.0028,-3.0057,-3.0042,-3.0071,-3.0068,-3.007,-3.0086,-3.0066,-3.0081,-3.0065,-3.0079,-3.007,-3.0096,-3.0099,-3.0096,-3.0093,-3.0097,-3.0097,-3.0101,-3.0097,-3.0087,-3.0086,-3.0086,-3.0086,0,-3.007,-3.006,-3.0089,-3.0086,-3.0086,-3.0107,-3.0104,-3.012,-3.0114,-3.0134,-3.0138,-3.0128,-3.0143,-3.0132,-3.0148,-3.0141,-3.0175,-3.0168,-3.0174,-3.0172,-3.0198,-3.0195,-3.0286,-3.0296,-3.0213,-3.0214,-3.0215,0,-3.0113,-3.0133,-3.0131,-3.014,-3.0142,-3.0157,-3.0165,-3.015,-3.0159,-3.0163,-3.0178,-3.0191,-3.0201,-3.0225,-3.022,-3.0231,-3.0223,-3.0254,-3.0224,-3.0227,-3.0222,-3.0221,-3.0222,-3.0259,-3.026,-3.0261,-3.0262,0,-3.019,-3.0183,-3.0195,-3.0205,-3.0214,-3.0222,-3.0227,-3.0236,-3.0221,-3.0231,-3.0246,-3.0253,-3.0268,-3.0281,-3.0289,-3.0289,-3.0273,-3.0271,-3.0277,-3.0282,-3.0284,-3.0282,-3.0189,-3.0269,-3.0268,-3.0268,-3.0267,-3.0267,-3.0247,-3.0263,-3.0264,-3.0277,-3.0279,-3.0284,-3.0298,-3.0294,-3.0306,-3.0316,-3.0307,-3.0324,-3.0325,-3.0335,-3.0337,-3.035,-3.0337,-3.0347,-3.0349,-3.0352,-3.0355,-3.0283,-3.0352,-3.0352,-3.0351,-3.0351,-3.0351,0,-3.0322,-3.0321,-3.0333,-3.0341,-3.0351,-3.0334,-3.0339,-3.0349,-3.0364,-3.0367,-3.0376,-3.0392,-3.0404,-3.0399,-3.041,-3.0421,-3.0414,-3.0424,-3.0423,-3.0423,-3.0366,-3.0359,-3.043,-3.043,-3.043,-3.043,-3.043,-3.043,-3.0362,-3.0387,-3.0381,-3.0407,-3.0406,-3.0422,-3.0426,-3.0431,-3.0433,-3.0451,-3.0461,-3.0458,-3.0457,-3.0467,-3.0477,-3.0475,-3.0479,-3.0492,-3.0488,-3.0435,-3.0427,-3.042,-3.0413,-3.0494,-3.0494,-3.0543,-3.0544,-3.0544]}]]